Regional Weather Roundup
Issued by NWS

Home | Current Version | Previous Version | Text Only | Print | Product List | Glossary On
Versions: 1 2 3 4 5 6 7 8 9 10 11 12 13 14 15 16 17 18 19 20 21 22 23 24 25 26 27 28
000
ASUS44 KLIX 260006
RWRLA
LOUISIANA WEATHER ROUNDUP
NATIONAL WEATHER SERVICE NEW ORLEANS LA
700 PM CDT WED APR 25 2018

NOTE: "FAIR" INDICATES FEW OR NO CLOUDS BELOW 12,000 FEET WITH NO
      SIGNIFICANT WEATHER AND/OR OBSTRUCTIONS TO VISIBILITY.
      SKY/WX - SKY CONDITION AND SIGNIFICANT WEATHER.
      TMP - AIR TEMPERATURE.    DP   - DEWPOINT TEMPERATURE.
      RH  - RELATIVE HUMIDITY.  PRES - PRESSURE.
      HX  - HEAT INDEX.         WCI  - WIND CHILL INDEX.

*  THESE STATIONS ARE NOT NWS OR FAA STATIONS AND ARE NOT UNDER
   NWS QUALITY CONTROL.

LAZ040-048-061>063-065-066-069-260100-
SOUTHEAST LOUISIANA

CITY           SKY/WX    TMP DP  RH WIND       PRES   REMARKS
N.O. INTL ARPT FAIR      78  59  51 NW3       29.95R
6HR MIN TEMP:  77; 6HR MAX TEMP:  83;

N.O. LAKEFRONT FAIR      77  64  64 W7        29.95R
6HR MIN TEMP:  73; 6HR MAX TEMP:  78;

N.O. DOWNTOWN* FAIR      80  55  42 CALM      29.96R
6HR MIN TEMP:  76; 6HR MAX TEMP:  82;

RESERVE*       FAIR      81  54  38 NW5       29.96R
6HR MIN TEMP:  81; 6HR MAX TEMP:  89;

SLIDELL        FAIR      77  58  51 VRB3      29.94R
6HR MIN TEMP:  77; 6HR MAX TEMP:  83;

BATON ROUGE    FAIR      79  55  43 NW3       29.95R
6HR MIN TEMP:  78; 6HR MAX TEMP:  82;

BOOTHVILLE     FAIR      75  63  66 SW8       29.95F
6HR MIN TEMP:  73; 6HR MAX TEMP:  79;

BELLE CHASSE   FAIR      78  58  49 NW5       29.94R
6HR MIN TEMP:  78; 6HR MAX TEMP:  81;

BOGALUSA*      FAIR      78  55  44 N3        29.95R
GALLIANO*      FAIR      75  59  58 SW6       29.96R
6HR MIN TEMP:  75; 6HR MAX TEMP:  80;

NEW ROADS*     CLOUDY    78  58  49 CALM      29.95S
6HR MIN TEMP:  78; 6HR MAX TEMP:  84;

GONZALES*      FAIR      78  57  48 CALM      29.95R
6HR MIN TEMP:  78; 6HR MAX TEMP:  82;

HAMMOND*       CLOUDY    79  55  44 NW3       29.95R
HOUMA*         PTCLDY    75  61  60 W10       29.96R
PORT FOURCHON* CLEAR     75  59  57 W12       29.97R

$$

LAZ041-044-053-054-260100-
SOUTHWEST LOUISIANA

CITY           SKY/WX    TMP DP  RH WIND       PRES   REMARKS
LAKE CHARLES   FAIR      75  63  66 SW12      29.95S
6HR MIN TEMP:  75; 6HR MAX TEMP:  83;

LAFAYETTE      MOCLDY    77  59  53 SW14      29.95S
6HR MIN TEMP:  77; 6HR MAX TEMP:  84;

PATTERSON      FAIR      74  63  68 W10       29.98R
6HR MIN TEMP:  74; 6HR MAX TEMP:  80;

SALT POINT       N/A    N/A N/A N/A W5        29.97R
NEW IBERIA     FAIR      75  61  61 S9        29.97S
6HR MIN TEMP:  75; 6HR MAX TEMP:  82;

CHENAULT AIRPK CLEAR     77  63  61 S6        29.95F

$$

LAZ027-028-260100-
CENTRAL LOUISIANA

CITY           SKY/WX    TMP DP  RH WIND       PRES   REMARKS
FORT POLK      CLOUDY    78  58  50 NW6       29.92S
6HR MIN TEMP:  78; 6HR MAX TEMP:  83;

ALEXANDRIA INT MOCLDY    78  57  48 N6        29.91F
6HR MIN TEMP:  78; 6HR MAX TEMP:  84;

ALEXANDRIA     MOCLDY    77  67  71 CALM      29.92F
6HR MIN TEMP:  76; 6HR MAX TEMP:  84;


$$

LAZ001-002-260100-
NORTHWEST LOUISIANA

CITY           SKY/WX    TMP DP  RH WIND       PRES   REMARKS
SHREVEPORT     CLOUDY    66  57  72 NW9       29.97F
6HR MIN TEMP:  66; 6HR MAX TEMP:  82;

BARKSDALE AFB  FAIR      65  56  71 N12       29.96F
6HR MIN TEMP:  65; 6HR MAX TEMP:  79; 6HR PCP: TRACE;

DTN SHREVEPORT MOCLDY    66  57  72 NW12      29.97F
6HR MIN TEMP:  66; 6HR MAX TEMP:  81;


$$

LAZ014-016-260100-
NORTHEAST LOUISIANA

CITY           SKY/WX    TMP DP  RH WIND       PRES   REMARKS
MONROE         CLOUDY    74  59  59 NW6       29.93F
6HR MIN TEMP:  74; 6HR MAX TEMP:  82;

TALLULAH       CLOUDY    73  58  59 E5        29.93F
6HR MIN TEMP:  73; 6HR MAX TEMP:  80;


$$





USA.gov is the U.S. government's official web portal to all federal, state and local government web resources and services.